Terminal Aerodrome Forecast
Issued by NWS

Home | Current Version | Previous Version | Text Only | Print | Product List | Glossary On
Versions: 1 2 3 4 5 6 7 8 9 10 11 12 13 14 15 16 17 18 19 20 21 22 23 24 25
000
FTUS43 KGRR 220500 RRA
TAFAZO
TAF
KAZO 220543Z 2206/2306 00000KT 5SM BR BKN008
     FM220900 15002KT 2SM BR OVC004
     FM221100 00000KT 1/2SM FG BKN004 OVC007
     FM221600 20005KT 5SM HZ BKN050=

USA.gov is the U.S. government's official web portal to all federal, state and local government web resources and services.